Find OneWeb SL0716

NORAD ID: 55177 Int'l Des: 2023-004 Owner: ONEWEBN Country: UK Constellation: oneweb operational
LEOCIRCULARPOLARONEWEB_TYPE

Live Position

Loading 3D Globe...

About OneWeb SL0716

Description loading...

Upcoming Passes

Passes for default location (London). Set your location on the main map for personalized predictions.

Altitude History

Loading altitude history...

Two-Line Element Set

1 55177U 23004AP 26109.80211054 .00000038 00000-0 64977-4 0 9991
2 55177 87.9192 17.4670 0002056 79.6798 280.4565 13.17647285159893
Epoch: Apr 19, 2026 • Age: 8 hours

Current Status

Altitude 1205.9 km
Velocity 7.26 km/s
Sub-Earth Point 83.53°N, 143.3°E
Launch Date Jan 10, 2023
Age 3.2 years
Type internet

Technical Details

Classification Payload
Mass 148.00 kg
Dry Mass 140.00 kg
Total Mass 148.00 kg
Length 1.30 m
Diameter 1.00 m
Span 5.00 m
Shape Trapezoid+2 pan
Manufacturer ONEWUS
Bus Type ARROW
Phase Status In Orbit
Owner/State ONEWEBN/UK

Most Searched